[[{"header":{"parameterUnit":"m.s-1","parameterCategory":1,"la1":30.2991,"la2":30.254,"lo1":-89.0895,"lo2":-89.0444,"dy":0.0017,"dx":0.0017,"nx":28,"ny":28,"refTime":"2023-07-26T03:00:00:Z","depth":0,"parameterNumber":2,"parameterNumberName":"U-component_of_WINDS"},"data":[0,0,0,0,0,0,0,0,0,0,0,0,0,0,0,0,0,0,0,0,0,0,0,0,0,0,0,0,0,0,0,0,0,0,0,0,0,0,0,0,0,0,0,0,0,0,0,0,0,0,0,0,0,0,0,0,0,0,-0.3419,-0.3418,0,-0.329,-0.3289,-0.3287,-0.3242,-0.3242,-0.3243,-0.3243,-0.3107,-0.3103,-0.3099,0,0,0,0,0,0,0,0,0,0,0,0,0,-0.3624,-0.362,-0.3419,-0.3418,-0.3416,-0.329,-0.3289,-0.3287,-0.3242,-0.3242,-0.3243,-0.3244,-0.3109,-0.3104,-0.3099,0,0,0,0,0,0,0,0,0,0,0,0,0,-0.3519,-0.3619,-0.342,-0.3379,-0.3374,-0.3291,-0.3288,-0.3286,-0.3242,-0.3242,-0.3243,-0.3244,-0.311,-0.3104,-0.3098,-0.3046,0,0,-0.308,-0.3077,0,0,0,0,0,0,0,0,-0.3525,-0.3511,-0.3386,-0.3381,-0.3376,-0.3283,-0.3311,-0.3205,-0.3241,-0.3292,-0.3243,-0.3244,-0.3165,-0.3154,-0.3128,-0.3039,-0.3033,-0.3079,-0.3075,-0.3073,-0.3071,0,0,0,0,0,0,0,-0.3532,-0.3517,-0.3368,-0.3384,-0.3378,-0.3366,-0.3351,-0.3291,-0.3226,-0.3287,-0.3284,-0.3269,-0.3162,-0.3134,-0.3125,-0.3031,-0.3079,-0.3074,-0.307,-0.3068,-0.2893,-0.2892,0,0,0,0,0,0,-0.3547,-0.3523,-0.3372,-0.3364,-0.3454,-0.3361,-0.3346,-0.3312,-0.3226,-0.3214,-0.3269,-0.3268,-0.3145,-0.3132,-0.312,-0.3053,-0.3073,-0.3067,-0.3064,-0.2894,-0.2893,-0.2892,0,0,0,0,0,0,-0.3551,-0.3534,-0.3377,-0.3442,-0.3422,-0.3357,-0.3319,-0.3309,-0.3281,-0.3212,-0.32,-0.3253,-0.3145,-0.3129,-0.3065,-0.3047,-0.3064,-0.3059,-0.2895,-0.2893,-0.2892,-0.2918,0,0,0,0,0,0,-0.3557,-0.3536,-0.3516,-0.3442,-0.3418,-0.3325,-0.3318,-0.3306,-0.3271,-0.3268,-0.3194,-0.3182,-0.3144,-0.3074,-0.3059,-0.3039,-0.3054,-0.2896,-0.2894,-0.2893,-0.2918,-0.2917,-0.2917,0,0,0,0,0,-0.3565,-0.3527,-0.3515,-0.3497,-0.3392,-0.3324,-0.331,-0.3269,-0.327,-0.3249,-0.3205,-0.3184,-0.3052,-0.3068,-0.305,-0.3029,-0.2897,-0.2895,-0.2893,-0.2919,-0.2918,-0.2917,0,0,0,0,0,0,-0.3598,-0.3517,-0.3502,-0.344,-0.339,-0.3317,-0.3289,-0.3269,-0.3216,-0.3215,-0.3165,-0.3148,-0.3088,-0.3052,-0.3071,-0.2973,-0.2973,-0.2967,-0.2999,-0.2998,-0.2997,-0.3007,-0.3049,0,0,0,0,0,-0.3599,-0.3552,-0.3482,-0.3434,-0.341,-0.3354,-0.3323,-0.3295,-0.324,-0.3218,-0.3169,-0.3116,-0.3062,-0.3028,-0.2975,-0.2913,-0.2896,-0.2889,-0.2889,-0.2889,-0.2884,-0.2849,-0.2845,-0.2884,-0.2884,-0.2884,0,0,-0.3598,-0.3548,-0.3521,-0.3439,-0.3397,-0.3349,-0.3336,-0.3285,-0.3248,-0.321,-0.3147,-0.311,-0.3047,-0.2984,-0.2954,-0.2952,-0.2869,-0.2886,-0.2886,-0.2881,-0.2846,-0.2842,-0.2839,-0.2883,-0.2883,-0.2883,0,0,-0.3573,-0.3531,-0.3486,-0.3444,-0.3381,-0.3344,-0.3334,-0.3264,-0.3238,-0.3175,-0.3145,-0.31,-0.3009,-0.2966,-0.2932,-0.2891,-0.2871,-0.2875,-0.2871,-0.2837,-0.2834,-0.2831,-0.2817,-0.2812,-0.2871,-0.2871,-0.2871,0,-0.358,-0.3507,-0.3465,-0.3416,-0.3381,-0.3346,-0.33,-0.3261,-0.3183,-0.3159,-0.3158,-0.3044,-0.2999,-0.2926,-0.2916,-0.289,-0.2875,-0.2883,-0.2838,-0.2835,-0.2831,-0.2817,-0.2812,-0.2872,-0.2872,-0.2872,-0.2872,0,-0.3519,-0.3469,-0.344,-0.3368,-0.3329,-0.3282,-0.3232,-0.3198,-0.3174,-0.3137,-0.3073,-0.3018,-0.2953,-0.2934,-0.2909,-0.2857,-0.2858,-0.2849,-0.2847,-0.2829,-0.2815,-0.2809,-0.2873,-0.2873,-0.2873,-0.2872,0,0,-0.351,-0.3416,-0.3406,-0.3373,-0.3301,-0.3261,-0.3212,-0.315,-0.3122,-0.307,-0.3027,-0.2951,-0.2942,-0.2904,-0.2874,-0.2845,-0.2816,-0.2839,-0.2836,-0.2836,-0.2755,-0.2763,-0.2757,-0.2803,-0.2801,-0.28,-0.2761,0,-0.3475,-0.3387,-0.3348,-0.3278,-0.3231,-0.3197,-0.3154,-0.3105,-0.307,-0.3024,-0.2984,-0.2932,-0.2924,-0.2901,-0.287,-0.2826,-0.2799,-0.2829,-0.2761,-0.2759,-0.2778,-0.2749,-0.2757,-0.2722,-0.2755,-0.2754,-0.2753,0,-0.3422,-0.3372,-0.3297,-0.3232,-0.321,-0.3173,-0.3113,-0.307,-0.3014,-0.299,-0.2948,-0.292,-0.2866,-0.287,-0.2795,-0.2816,-0.2786,-0.2761,-0.2758,-0.275,-0.2755,-0.274,-0.271,-0.2705,-0.2744,-0.2744,-0.2745,0,-0.3423,-0.3336,-0.328,-0.3253,-0.3175,-0.315,-0.3116,-0.3061,-0.3026,-0.2974,-0.2951,-0.2893,-0.2861,-0.2816,-0.2773,-0.2779,-0.2702,-0.2702,-0.268,-0.2681,-0.2665,-0.2666,-0.2629,-0.2647,-0.2647,-0.2647,-0.2647,0,-0.3388,-0.3344,-0.328,-0.3245,-0.3194,-0.315,-0.31,-0.3064,-0.3015,-0.2973,-0.294,-0.29,-0.2846,-0.2799,-0.2765,-0.2708,-0.2694,-0.2673,-0.2664,-0.2675,-0.2678,-0.2654,-0.2656,-0.2645,-0.2646,-0.2646,-0.2646,0,-0.338,-0.3336,-0.3273,-0.3205,-0.3187,-0.3152,-0.3094,-0.3059,-0.3023,-0.2969,-0.2954,-0.2896,-0.284,-0.2792,-0.2717,-0.2694,-0.2636,-0.2625,-0.2655,-0.265,-0.2632,-0.2634,-0.2577,-0.2568,-0.2593,-0.2592,-0.2592,0,-0.336,-0.3326,-0.3255,-0.3225,-0.3192,-0.3143,-0.3109,-0.3064,-0.3029,-0.2962,-0.2935,-0.2877,-0.2827,-0.2739,-0.2689,-0.2632,-0.262,-0.2604,-0.2611,-0.2624,-0.262,-0.2622,-0.2618,-0.2604,-0.2604,-0.2604,-0.2604,0,-0.333,-0.331,-0.3262,-0.3206,-0.3166,-0.312,-0.3072,-0.3049,-0.2995,-0.2957,-0.29,-0.2862,-0.2787,-0.2729,-0.2667,-0.2631,-0.2608,-0.2602,-0.2594,-0.2605,-0.2624,-0.2613,-0.2653,-0.2603,-0.2603,-0.2603,-0.2603,-0.2603,-0.3315,-0.3283,-0.3229,-0.3176,-0.3136,-0.3093,-0.3057,-0.3017,-0.2969,-0.2905,-0.2881,-0.2822,-0.2767,-0.2681,-0.2645,-0.2598,-0.2595,-0.2583,-0.258,-0.2578,-0.258,-0.2632,-0.2586,-0.2586,-0.2586,-0.2586,-0.2586,0,-0.3283,-0.3247,-0.3199,-0.3135,-0.3093,-0.3077,-0.3024,-0.299,-0.294,-0.2891,-0.2844,-0.2778,-0.2722,-0.2669,-0.261,-0.2583,-0.2571,-0.2569,-0.257,-0.2562,-0.2586,-0.2599,-0.2579,-0.2579,-0.2579,-0.2579,-0.2579,-0.2579,-0.3261,-0.3206,-0.318,-0.3105,-0.3068,-0.3012,-0.2983,-0.2942,-0.2903,-0.2832,-0.2786,-0.2752,-0.2701,-0.2639,-0.2587,-0.2573,-0.2552,-0.2553,-0.2536,-0.2559,-0.256,-0.2562,-0.2573,-0.2549,-0.2549,-0.2516,-0.2516,-0.2516]},{"header":{"parameterUnit":"m.s-1","parameterCategory":1,"la1":30.2991,"la2":30.254,"lo1":-89.0895,"lo2":-89.0444,"dy":0.0017,"dx":0.0017,"nx":28,"ny":28,"refTime":"2023-07-26T03:00:00:Z","depth":0,"parameterNumber":3,"parameterNumberName":"V-component_of_WINDS"},"data":[0,0,0,0,0,0,0,0,0,0,0,0,0,0,0,0,0,0,0,0,0,0,0,0,0,0,0,0,0,0,0,0,0,0,0,0,0,0,0,0,0,0,0,0,0,0,0,0,0,0,0,0,0,0,0,0,0,0,1.792,1.7919,0,1.7846,1.7846,1.7845,1.7858,1.7859,1.7861,1.7862,1.7781,1.7777,1.7774,0,0,0,0,0,0,0,0,0,0,0,0,0,1.8065,1.8062,1.792,1.7919,1.7918,1.7847,1.7846,1.7845,1.7858,1.7859,1.7861,1.7863,1.7782,1.7778,1.7774,0,0,0,0,0,0,0,0,0,0,0,0,0,1.7998,1.8061,1.792,1.7916,1.7915,1.7847,1.7846,1.7844,1.7857,1.7859,1.7861,1.7863,1.7783,1.7778,1.7773,1.7702,0,0,1.7758,1.7755,0,0,0,0,0,0,0,0,1.8001,1.7992,1.7918,1.7916,1.7915,1.7864,1.7867,1.7796,1.7857,1.7879,1.7862,1.7864,1.7806,1.7799,1.7781,1.7698,1.7695,1.7757,1.7754,1.7752,1.775,0,0,0,0,0,0,0,1.8006,1.7995,1.7891,1.7917,1.7915,1.7916,1.7909,1.7854,1.7832,1.7877,1.7878,1.787,1.7806,1.7786,1.7779,1.7694,1.7757,1.7753,1.775,1.7748,1.7546,1.7543,0,0,0,0,0,0,1.8013,1.7999,1.7893,1.7889,1.7964,1.7912,1.7904,1.7878,1.7833,1.7828,1.7868,1.7871,1.7794,1.7785,1.7776,1.7688,1.7752,1.7747,1.7744,1.7548,1.7545,1.7543,0,0,0,0,0,0,1.8016,1.8003,1.7896,1.7944,1.7931,1.7907,1.7878,1.7876,1.7856,1.7826,1.7822,1.7852,1.7795,1.7784,1.772,1.7685,1.7745,1.774,1.7551,1.7547,1.7544,1.7511,0,0,0,0,0,0,1.802,1.8004,1.7979,1.7944,1.7928,1.7843,1.7876,1.7873,1.7848,1.785,1.781,1.7805,1.7796,1.7728,1.7715,1.7679,1.7736,1.7554,1.7549,1.7545,1.7515,1.7507,1.75,0,0,0,0,0,1.8025,1.7972,1.7977,1.7964,1.7896,1.7841,1.7832,1.7824,1.7845,1.7817,1.7798,1.7806,1.7692,1.7721,1.7707,1.7669,1.7556,1.755,1.7545,1.7518,1.7508,1.75,0,0,0,0,0,0,1.8002,1.7967,1.7973,1.7907,1.7877,1.7843,1.7809,1.7814,1.7776,1.7779,1.777,1.776,1.7695,1.7676,1.771,1.7596,1.7626,1.7618,1.7611,1.7601,1.7594,1.7598,1.7732,0,0,0,0,0,1.7989,1.795,1.7921,1.7865,1.785,1.7832,1.7808,1.7805,1.7772,1.7759,1.7735,1.7701,1.7658,1.7629,1.7587,1.7514,1.7503,1.748,1.7473,1.7466,1.7458,1.7414,1.7403,1.7525,1.7525,1.7526,0,0,1.7962,1.7939,1.7914,1.786,1.7836,1.7793,1.7821,1.7775,1.7741,1.7751,1.7689,1.7671,1.7632,1.7563,1.7531,1.7545,1.7422,1.746,1.7455,1.745,1.7408,1.7396,1.7386,1.7522,1.7523,1.7523,0,0,1.789,1.787,1.782,1.7796,1.776,1.7748,1.7736,1.7702,1.769,1.7629,1.7634,1.7594,1.7519,1.7491,1.7467,1.7383,1.7388,1.737,1.7329,1.7286,1.7276,1.7268,1.7234,1.7223,1.7363,1.7362,1.7362,0,1.786,1.7797,1.7793,1.7745,1.772,1.7729,1.7676,1.7653,1.7604,1.7585,1.7603,1.7508,1.7483,1.7406,1.7385,1.7367,1.735,1.7373,1.7279,1.727,1.7261,1.7229,1.7217,1.736,1.7361,1.7361,1.7361,0,1.776,1.7716,1.768,1.7634,1.7605,1.7555,1.7541,1.7512,1.7511,1.7497,1.7432,1.7403,1.7354,1.7336,1.7335,1.7257,1.7266,1.7281,1.731,1.7248,1.7217,1.7205,1.7357,1.7358,1.7359,1.7359,0,0,1.767,1.7623,1.7609,1.7587,1.7548,1.7513,1.7462,1.7416,1.739,1.7356,1.7311,1.7248,1.7261,1.7233,1.7229,1.7192,1.7123,1.7211,1.7209,1.7192,1.7031,1.7018,1.7004,1.7127,1.7125,1.7123,1.7033,0,1.7591,1.7504,1.7498,1.7418,1.7375,1.7383,1.7339,1.7308,1.7293,1.7253,1.7236,1.719,1.7213,1.7196,1.716,1.7139,1.709,1.7146,1.7081,1.7079,1.7087,1.6989,1.6975,1.6891,1.7022,1.702,1.7019,0,1.7488,1.7452,1.7368,1.7333,1.7315,1.7275,1.7231,1.7194,1.7159,1.715,1.7119,1.7119,1.7064,1.7098,1.702,1.7059,1.7032,1.7018,1.7014,1.7005,1.7043,1.6973,1.6865,1.6851,1.7,1.7002,1.7003,0,1.7426,1.7357,1.7296,1.7278,1.7237,1.7208,1.7189,1.7157,1.7128,1.709,1.707,1.7026,1.7,1.6964,1.695,1.6977,1.6872,1.6905,1.686,1.686,1.6835,1.6836,1.6717,1.6824,1.6824,1.6824,1.6824,0,1.7337,1.7284,1.7268,1.723,1.717,1.7164,1.7104,1.7086,1.7057,1.7014,1.7019,1.6978,1.6965,1.6921,1.691,1.6845,1.6835,1.6824,1.6821,1.6821,1.6822,1.6801,1.6805,1.6821,1.6822,1.6822,1.6823,0,1.7256,1.7243,1.7178,1.7144,1.7135,1.7092,1.7062,1.7024,1.7011,1.6956,1.6943,1.692,1.6869,1.6853,1.6791,1.6784,1.6706,1.6711,1.6718,1.6717,1.6671,1.6674,1.6532,1.6511,1.6635,1.6634,1.6633,0,1.7198,1.7157,1.712,1.7092,1.7073,1.7029,1.7,1.6992,1.6961,1.6918,1.6884,1.6834,1.6793,1.671,1.6686,1.6638,1.6638,1.6592,1.6631,1.6632,1.6633,1.6634,1.6628,1.6583,1.6582,1.6581,1.658,0,1.7095,1.7091,1.7051,1.7008,1.6974,1.6939,1.6906,1.6882,1.6869,1.6834,1.6782,1.6751,1.6687,1.6635,1.6586,1.6564,1.6568,1.6569,1.6555,1.6553,1.6557,1.655,1.6694,1.6571,1.6572,1.6573,1.6573,1.6573,1.7022,1.6985,1.6952,1.6906,1.6881,1.6849,1.6811,1.6793,1.6751,1.6699,1.6697,1.664,1.6603,1.6538,1.6513,1.6467,1.648,1.6461,1.6455,1.645,1.6444,1.6568,1.6458,1.6458,1.6459,1.6459,1.6459,0,1.6916,1.6896,1.6854,1.6807,1.677,1.6781,1.6744,1.6711,1.6661,1.6628,1.6588,1.6527,1.6477,1.645,1.6399,1.6366,1.6367,1.6353,1.6353,1.6347,1.6437,1.6452,1.6353,1.6353,1.6353,1.6353,1.6353,1.6353,1.6857,1.6794,1.6786,1.6709,1.6689,1.6634,1.6611,1.6581,1.6554,1.6486,1.6445,1.6429,1.6397,1.6343,1.6297,1.629,1.6269,1.6253,1.6247,1.6331,1.6341,1.6351,1.6366,1.625,1.625,1.616,1.616,1.6159]}]]